Location: Gwatt
(46.7204°N, 7.6223°E)
Time: 19:31:21
(UTC+00:00)

Transit 2A - Pass Details

Date: 27 January 2021
Orbit: 600 x 958 km, 66.7° (Epoch: 26 February)

Event Time Altitude Azimuth Distance (km) Brightness Sun altitude
Rises 11:10:03 0° 325° (NW) 3,016 8.6 24.5°
Reaches altitude 10° 11:12:26 10° 326° (NW) 2,055 7.8 24.6°
Maximum altitude 11:17:02 87° 240° (WSW) 625 6.0 24.7°
Drops below altitude 10° 11:21:22 10° 149° (SSE) 1,943 9.4 24.8°
Sets 11:23:34 0° 149° (SSE) 2,836 10.0 24.8°
